[[{"header":{"parameterUnit":"m.s-1","parameterCategory":1,"la1":30.2991,"la2":30.254,"lo1":-89.0895,"lo2":-89.0444,"dy":0.0017,"dx":0.0017,"nx":28,"ny":28,"refTime":"2026-01-06T03:00:00:Z","depth":0,"parameterNumber":2,"parameterNumberName":"U-component_of_WINDS"},"data":[0,0,0,0,0,0,0,0,0,0,0,0,0,0,0,0,0,0,0,0,0,0,0,0,0,0,0,0,0,0,0,0,0,0,0,0,0,0,0,0,0,0,0,0,0,0,0,0,0,0,0,0,0,0,0,0,0,0,0.2227,0.2228,0,0.2299,0.23,0.2301,0.2356,0.2356,0.2357,0.2357,0.2433,0.2435,0.2436,0,0,0,0,0,0,0,0,0,0,0,0,0,0.2141,0.2142,0.2227,0.2228,0.2228,0.2299,0.23,0.2301,0.2356,0.2357,0.2357,0.2358,0.2433,0.2435,0.2436,0,0,0,0,0,0,0,0,0,0,0,0,0,0.2192,0.2142,0.2227,0.2264,0.2269,0.2299,0.23,0.2301,0.2356,0.2357,0.2357,0.2358,0.2432,0.2434,0.2437,0.2435,0,0,0.2444,0.2445,0,0,0,0,0,0,0,0,0.2189,0.2195,0.2258,0.2262,0.2267,0.2319,0.2297,0.2346,0.2356,0.2323,0.2357,0.2358,0.2395,0.24,0.2412,0.2439,0.2442,0.2444,0.2445,0.2446,0.2447,0,0,0,0,0,0,0,0.2185,0.2192,0.2255,0.2259,0.2264,0.2279,0.2287,0.2307,0.2354,0.2326,0.233,0.2337,0.2397,0.241,0.2414,0.2443,0.2444,0.2446,0.2447,0.2448,0.2477,0.2477,0,0,0,0,0,0,0.2175,0.2189,0.2253,0.2258,0.2229,0.228,0.2289,0.2302,0.2354,0.2362,0.2337,0.234,0.2405,0.2412,0.2417,0.2422,0.2446,0.2448,0.245,0.2478,0.2477,0.2476,0,0,0,0,0,0,0.2173,0.2181,0.225,0.2224,0.2234,0.2281,0.2294,0.2303,0.2315,0.2362,0.2371,0.2341,0.2406,0.2414,0.2431,0.2425,0.2449,0.2452,0.2478,0.2478,0.2477,0.2429,0,0,0,0,0,0,0.2171,0.2179,0.2178,0.2224,0.2236,0.2261,0.2294,0.2303,0.2319,0.2323,0.2368,0.2376,0.2407,0.2428,0.2434,0.2429,0.2453,0.2479,0.2478,0.2477,0.2431,0.2426,0.2422,0,0,0,0,0,0.2167,0.2161,0.2178,0.2185,0.2235,0.2261,0.2268,0.2303,0.2318,0.2318,0.2349,0.2375,0.2425,0.2429,0.2436,0.2432,0.248,0.2478,0.2477,0.2433,0.2427,0.2422,0,0,0,0,0,0,0.2113,0.2168,0.2187,0.2195,0.2223,0.227,0.2271,0.2296,0.232,0.2323,0.2368,0.2377,0.2391,0.2413,0.2417,0.2435,0.2456,0.2456,0.242,0.2415,0.241,0.2405,0.2455,0,0,0,0,0,0.2102,0.2118,0.2165,0.2168,0.2182,0.2224,0.2236,0.2262,0.2293,0.2305,0.2337,0.2366,0.239,0.2403,0.2427,0.2435,0.2447,0.2436,0.2431,0.2427,0.2427,0.2436,0.2433,0.2472,0.2472,0.2472,0,0,0.208,0.2112,0.2119,0.2159,0.2183,0.22,0.2233,0.2249,0.2262,0.2307,0.2326,0.2351,0.2387,0.2401,0.2408,0.242,0.2419,0.2426,0.2422,0.2424,0.2434,0.2431,0.2427,0.2471,0.2471,0.2471,0,0,0.2048,0.2073,0.2079,0.2104,0.2141,0.217,0.2171,0.2215,0.2234,0.2253,0.2288,0.2306,0.2343,0.2369,0.2387,0.2368,0.2394,0.2375,0.2351,0.236,0.2357,0.2354,0.235,0.2347,0.2374,0.2374,0.2374,0,0.2015,0.2041,0.2079,0.2094,0.2111,0.2154,0.2162,0.2184,0.2227,0.2239,0.2251,0.2302,0.2329,0.2351,0.2346,0.2359,0.2364,0.2369,0.2354,0.2352,0.235,0.2346,0.2344,0.2372,0.2372,0.2372,0.2372,0,0.2,0.2018,0.2019,0.206,0.2078,0.2089,0.2131,0.2145,0.2169,0.2198,0.2219,0.2254,0.2286,0.2293,0.2317,0.2319,0.2326,0.2345,0.2367,0.2343,0.2341,0.2339,0.2368,0.2369,0.237,0.237,0,0,0.1934,0.1998,0.1998,0.2019,0.2064,0.2079,0.2094,0.2126,0.2138,0.2167,0.2182,0.2214,0.2234,0.2254,0.2282,0.2289,0.2276,0.2309,0.231,0.2303,0.2283,0.2269,0.2266,0.2293,0.2293,0.2293,0.2281,0,0.191,0.1937,0.1974,0.1989,0.2008,0.205,0.2063,0.2094,0.2121,0.2142,0.2174,0.2197,0.2219,0.2233,0.2242,0.2275,0.2272,0.2276,0.2309,0.231,0.2299,0.2264,0.2248,0.2235,0.228,0.228,0.2279,0,0.1884,0.1912,0.1929,0.1977,0.1986,0.1996,0.2031,0.2049,0.2086,0.2106,0.2131,0.2161,0.2181,0.2201,0.2231,0.2233,0.2249,0.2268,0.2268,0.2273,0.2293,0.2269,0.2231,0.2229,0.2278,0.2278,0.2278,0,0.1836,0.1878,0.1894,0.191,0.1965,0.1972,0.1996,0.2034,0.2051,0.2082,0.2095,0.2127,0.2145,0.217,0.221,0.222,0.2237,0.2259,0.2255,0.2254,0.2256,0.2256,0.2221,0.2266,0.2266,0.2266,0.2266,0,0.1805,0.1815,0.1874,0.1884,0.1897,0.194,0.1953,0.198,0.2014,0.2032,0.2071,0.2087,0.2138,0.2162,0.2193,0.2215,0.2222,0.224,0.2249,0.2237,0.2235,0.2248,0.225,0.2265,0.2265,0.2265,0.2265,0,0.1753,0.1792,0.1814,0.1865,0.1878,0.1886,0.193,0.1943,0.1974,0.1997,0.2005,0.2054,0.2084,0.2126,0.2168,0.219,0.2208,0.222,0.2195,0.22,0.2195,0.2195,0.2168,0.2168,0.2211,0.221,0.221,0,0.173,0.1739,0.1792,0.1806,0.1829,0.1852,0.1871,0.1915,0.1934,0.1979,0.1987,0.202,0.2048,0.2094,0.2135,0.2169,0.2183,0.2172,0.2189,0.2178,0.2185,0.2184,0.2187,0.2167,0.2167,0.2166,0.2166,0,0.1687,0.1708,0.1733,0.1766,0.1788,0.1816,0.1847,0.1857,0.1909,0.1928,0.1959,0.1981,0.2026,0.2059,0.2099,0.2126,0.2155,0.216,0.2162,0.215,0.2135,0.2145,0.2184,0.216,0.2161,0.2161,0.2162,0.2162,0.165,0.1661,0.17,0.1729,0.1756,0.1785,0.18,0.1834,0.186,0.19,0.1925,0.1956,0.1996,0.2053,0.2079,0.2105,0.2116,0.2118,0.2118,0.2118,0.2115,0.2131,0.2112,0.2112,0.2112,0.2113,0.2113,0,0.161,0.1639,0.1664,0.1706,0.1729,0.1755,0.1791,0.1809,0.1835,0.187,0.1898,0.1935,0.1969,0.2013,0.205,0.2063,0.2077,0.2071,0.2071,0.2077,0.2101,0.2097,0.2059,0.2059,0.2059,0.2059,0.2059,0.2059,0.1592,0.1612,0.1638,0.1673,0.1702,0.1732,0.175,0.1778,0.1807,0.1846,0.1874,0.1903,0.1943,0.1984,0.2017,0.2029,0.2042,0.2032,0.2048,0.207,0.2075,0.2079,0.2076,0.2034,0.2034,0.2022,0.2022,0.2022]},{"header":{"parameterUnit":"m.s-1","parameterCategory":1,"la1":30.2991,"la2":30.254,"lo1":-89.0895,"lo2":-89.0444,"dy":0.0017,"dx":0.0017,"nx":28,"ny":28,"refTime":"2026-01-06T03:00:00:Z","depth":0,"parameterNumber":3,"parameterNumberName":"V-component_of_WINDS"},"data":[0,0,0,0,0,0,0,0,0,0,0,0,0,0,0,0,0,0,0,0,0,0,0,0,0,0,0,0,0,0,0,0,0,0,0,0,0,0,0,0,0,0,0,0,0,0,0,0,0,0,0,0,0,0,0,0,0,0,2.1748,2.1748,0,2.1752,2.1752,2.1752,2.1772,2.1773,2.1773,2.1774,2.1777,2.1776,2.1776,0,0,0,0,0,0,0,0,0,0,0,0,0,2.1756,2.1755,2.1748,2.1748,2.1748,2.1752,2.1752,2.1752,2.1772,2.1773,2.1773,2.1774,2.1777,2.1776,2.1776,0,0,0,0,0,0,0,0,0,0,0,0,0,2.1755,2.1755,2.1748,2.1758,2.1759,2.1752,2.1752,2.1752,2.1772,2.1773,2.1774,2.1774,2.1777,2.1776,2.1776,2.1758,0,0,2.1774,2.1774,0,0,0,0,0,0,0,0,2.1755,2.1755,2.1757,2.1758,2.1759,2.1762,2.1756,2.1754,2.1772,2.1767,2.1774,2.1775,2.1771,2.1771,2.177,2.1758,2.1758,2.1774,2.1774,2.1773,2.1773,0,0,0,0,0,0,0,2.1755,2.1755,2.1749,2.1757,2.1758,2.1762,2.1763,2.1756,2.1765,2.1768,2.1769,2.1769,2.1772,2.1771,2.1771,2.1758,2.1774,2.1774,2.1773,2.1773,2.1731,2.173,0,0,0,0,0,0,2.1754,2.1755,2.1749,2.1749,2.1759,2.1762,2.1763,2.176,2.1765,2.1767,2.1769,2.177,2.1771,2.1771,2.1771,2.175,2.1773,2.1773,2.1773,2.1732,2.1731,2.173,0,0,0,0,0,0,2.1754,2.1753,2.1749,2.1752,2.1752,2.1761,2.1758,2.176,2.1759,2.1766,2.1768,2.1766,2.1772,2.1771,2.1761,2.1751,2.1773,2.1772,2.1733,2.1732,2.1731,2.1709,0,0,0,0,0,0,2.1754,2.1753,2.1747,2.1752,2.1752,2.1739,2.1758,2.176,2.1758,2.176,2.1764,2.1765,2.1772,2.1762,2.176,2.175,2.1772,2.1734,2.1732,2.1731,2.171,2.1707,2.1704,0,0,0,0,0,2.1754,2.174,2.1746,2.1745,2.1744,2.1739,2.1739,2.1748,2.1757,2.1751,2.1755,2.1765,2.1752,2.176,2.1759,2.1749,2.1735,2.1733,2.1731,2.1712,2.1708,2.1704,0,0,0,0,0,0,2.1733,2.1741,2.1748,2.1735,2.1736,2.1742,2.1734,2.1743,2.1741,2.1743,2.1754,2.1754,2.1742,2.1744,2.1754,2.1731,2.1745,2.1743,2.1731,2.1727,2.1723,2.1723,2.1771,0,0,0,0,0,2.1726,2.1722,2.1729,2.1717,2.1717,2.1726,2.1724,2.1731,2.1732,2.1732,2.1736,2.1737,2.1733,2.173,2.1726,2.1711,2.1712,2.1703,2.1699,2.1697,2.1695,2.1687,2.1683,2.1724,2.1724,2.1725,0,0,2.1713,2.1717,2.1714,2.1713,2.1715,2.1709,2.1726,2.1719,2.1716,2.1731,2.1722,2.1724,2.1726,2.1713,2.1707,2.1714,2.1684,2.1694,2.1692,2.1692,2.1685,2.1681,2.1677,2.1723,2.1723,2.1724,0,0,2.1687,2.169,2.168,2.1681,2.1684,2.169,2.1687,2.1692,2.1695,2.1685,2.1697,2.1692,2.1685,2.1685,2.1685,2.1658,2.1667,2.1657,2.164,2.1632,2.1629,2.1626,2.1617,2.1613,2.1655,2.1655,2.1655,0,2.1671,2.1664,2.1674,2.1667,2.1666,2.168,2.167,2.1671,2.1672,2.1671,2.1679,2.167,2.1672,2.1659,2.1653,2.1651,2.1649,2.1657,2.1628,2.1626,2.1623,2.1614,2.1611,2.1653,2.1654,2.1654,2.1654,0,2.1643,2.1638,2.163,2.1631,2.1629,2.1621,2.1629,2.1626,2.1633,2.1637,2.1628,2.163,2.1628,2.1625,2.1632,2.1613,2.1617,2.1627,2.164,2.1618,2.161,2.1606,2.1652,2.1652,2.1652,2.1653,0,0,2.1604,2.1611,2.1608,2.1608,2.1612,2.1608,2.16,2.1598,2.1595,2.1595,2.1588,2.1582,2.159,2.1589,2.1596,2.1589,2.1568,2.1599,2.1599,2.1593,2.1548,2.1541,2.1537,2.1574,2.1573,2.1573,2.1548,0,2.1579,2.1566,2.1575,2.1561,2.1556,2.1569,2.1562,2.1563,2.1567,2.1563,2.1568,2.1563,2.1575,2.1574,2.1568,2.1572,2.1559,2.1574,2.1568,2.1567,2.1567,2.1533,2.1526,2.1503,2.1545,2.1544,2.1544,0,2.1548,2.1548,2.1533,2.1537,2.1536,2.1529,2.1528,2.1524,2.1526,2.1529,2.1528,2.1537,2.1529,2.1542,2.1531,2.1541,2.1539,2.154,2.1539,2.154,2.1554,2.1532,2.1495,2.1492,2.1539,2.1539,2.154,0,2.1521,2.1516,2.1507,2.1507,2.1512,2.1507,2.1509,2.1511,2.151,2.1508,2.1507,2.1505,2.1504,2.1501,2.1509,2.1518,2.1497,2.1511,2.1499,2.1499,2.1495,2.1495,2.1457,2.1492,2.1492,2.1492,2.1493,0,2.1493,2.1483,2.1495,2.1489,2.1479,2.1489,2.1478,2.1481,2.1483,2.1478,2.1489,2.1484,2.1494,2.1489,2.1495,2.1485,2.1484,2.1486,2.1488,2.1486,2.1485,2.1485,2.1487,2.1492,2.1492,2.1492,2.1492,0,2.1461,2.1469,2.1459,2.1465,2.1466,2.1458,2.1463,2.1458,2.1462,2.1455,2.1454,2.1462,2.1457,2.1464,2.146,2.1464,2.145,2.1454,2.145,2.1451,2.144,2.1441,2.14,2.1396,2.1434,2.1433,2.1433,0,2.1443,2.1436,2.1441,2.1438,2.144,2.1435,2.1434,2.1443,2.1441,2.1442,2.1436,2.1433,2.1431,2.1423,2.1427,2.1424,2.1428,2.1414,2.1428,2.1426,2.1429,2.1429,2.1429,2.1412,2.1411,2.1411,2.141,0,2.1409,2.1413,2.1411,2.1409,2.1407,2.1407,2.1407,2.1404,2.1414,2.141,2.1406,2.1404,2.1401,2.1397,2.1395,2.1396,2.1405,2.1406,2.1403,2.1401,2.1399,2.14,2.1443,2.1407,2.1407,2.1408,2.1408,2.1408,2.1384,2.1378,2.1381,2.1378,2.1379,2.1379,2.1374,2.1378,2.1375,2.1373,2.1379,2.1373,2.1374,2.1373,2.1373,2.1369,2.1375,2.1371,2.137,2.1369,2.1367,2.1399,2.1369,2.1369,2.1369,2.1369,2.1369,0,2.1351,2.1354,2.1351,2.1351,2.1348,2.1357,2.1357,2.1354,2.1349,2.135,2.1348,2.1343,2.1339,2.1344,2.1341,2.1336,2.134,2.1335,2.1336,2.1336,2.1362,2.1365,2.1332,2.1332,2.1332,2.1332,2.1332,2.1332,2.1334,2.1325,2.133,2.1321,2.1324,2.1319,2.1319,2.1318,2.1319,2.1313,2.1311,2.1314,2.1316,2.1313,2.131,2.1311,2.131,2.1304,2.1306,2.1331,2.1334,2.1338,2.134,2.1303,2.1303,2.1281,2.1281,2.1281]}]]